Regional Weather Roundup
Issued by NWS

Home | Current Version | Previous Version | Text Only | Print | Product List | Glossary Off
Versions: 1 2 3 4 5 6 7 8 9 10 11 12 13 14 15 16 17 18 19 20 21 22 23 24 25 26 27 28 29 30 31 32 33 34 35 36 37 38 39 40 41 42 43 44 45 46 47 48 49 50

000
ASUS43 KLOT 280103
RWRIL

ILLINOIS REGIONAL WEATHER ROUNDUP
NATIONAL WEATHER SERVICE CHICAGO/ROMEOVILLE IL
800 PM CDT TUE JUN 27 2017

NOTE: "FAIR" INDICATES FEW OR NO CLOUDS BELOW 12,000 FEET WITH NO
SIGNIFICANT WEATHER AND/OR OBSTRUCTIONS TO VISIBILITY.

* THESE STATIONS ARE NOT UNDER NWS QUALITY CONTROL. THEY ALSO MAY NOT
  REPORT WEATHER SUCH AS PRECIPITATION OR FOG.

ILZ001-002-007-009-015-016-024-280200-
NORTHWEST ILLINOIS

CITY           SKY/WX    TMP DP  RH WIND       PRES   REMARKS
MOLINE         CLEAR     70  48  45 SE6       29.99F
STERLING*      PTCLDY    70  46  42 CALM      30.01F
$$

ILZ003-004-008-010-011-017-018-280200-
NORTH CENTRAL ILLINOIS

CITY           SKY/WX    TMP DP  RH WIND       PRES   REMARKS
ROCKFORD       MOCLDY    71  47  42 S6        30.01F
$$

ILZ005-006-012>014-019>023-280200-
NORTHEAST ILLINOIS

CITY           SKY/WX    TMP DP  RH WIND       PRES   REMARKS
CHICAGO-OHARE  MOCLDY    73  42  32 SW8       30.01S
CHICAGO-MIDWAY MOCLDY    73  46  38 S10       30.02S
AURORA         CLEAR     69  46  43 S6        30.03F
WAUKEGAN       CLEAR     66  49  54 SE7       30.01F
DUPAGE AIRPORT CLEAR     69  48  47 SW7       30.02S
WHEELING       CLEAR     70  49  47 SE9       30.03S
$$

LMZ740>746-280200-
SOUTHERN LAKE MICHIGAN

STATION/POSITION SKY/WX   TEMP    WIND        PRES    VSBY  WAVE
                          AIR SEA DIR/SP/G                  HT/PER
                          (F)     (DEG/KT/KT) (MB)    (MI)  (FT/S)
SOUTHERN BUOY              63 62  170/ 10/ 12 1016.9          1/ 2
WILMETTE HARBOR            65 64  130/  8/ 12   N/A           1/ 3
HARRISON CRIB              67     120/ 14/ 15   N/A
BURNHAM HARBOR             65                   N/A
CALUMET HARBOR             68     110/  7/ 10 1016.4R
BURNS HARBOR               74     180/  6/ 11 1017.3F
MICHIGAN CITY              71     100/  5/  7   N/A
MICHIGAN CITY 6N           67 66   90/  6/  8   N/A           1
ST. JOSEPH                 69 69  160/  4/  4 1017.3F         1
$$

ILZ025>027-034>036-040-047-049-050-058-095>099-280200-
WEST-CENTRAL ILLINOIS

CITY           SKY/WX    TMP DP  RH WIND       PRES   REMARKS
QUINCY         CLEAR     73  54  51 SE8       29.99F
$$

ILZ028>032-037-038-041>044-048-051>054-059>061-280200-
CENTRAL ILLINOIS

CITY           SKY/WX    TMP DP  RH WIND       PRES   REMARKS
BLOOMINGTON    CLOUDY    69  48  47 SW7       30.05F
DECATUR        CLEAR     71  49  45 S7        30.05S
PEORIA         CLEAR     73  49  42 S9        30.02S
SPRINGFIELD    CLEAR     73  53  49 S6        30.03F
TAYLORVILLE    NOT AVBL
$$

ILZ033-039-045-046-055>057-062-063-280200-
EAST-CENTRAL ILLINOIS

CITY           SKY/WX    TMP DP  RH WIND       PRES   REMARKS
CHAMPAIGN      CLEAR     71  47  42 S6        30.06F
MATTOON        CLEAR     70  52  52 SE3       30.06S
$$

ILZ079-100>102-280200-
SOUTHWEST ILLINOIS

CITY           SKY/WX    TMP DP  RH WIND       PRES   REMARKS
BELLEVILLE     CLEAR     74  55  50 S8        30.04S
CAHOKIA*       CLEAR     78  50  37 S6        30.02S
$$

ILZ064>066-069>071-074>076-080>082-084>086-088>090-092>094-280200-
SOUTH-CENTRAL ILLINOIS

CITY           SKY/WX    TMP DP  RH WIND       PRES   REMARKS
CARBONDALE     CLEAR     75  59  57 CALM      30.05S
MT. VERNON     CLEAR     73  56  54 CALM      30.06S
$$

ILZ067-068-072-073-078-083-087-091-280200-
SOUTHEAST ILLINOIS

CITY           SKY/WX    TMP DP  RH WIND       PRES   REMARKS
LAWRENCEVILLE  CLEAR     72  52  49 CALM      30.07F
$$

ABBREVIATIONS USED IN REMARKS
   TC - TEMPERATURE IN CELSIUS
  WCI - WIND CHILL INDEX
   HX - HEAT INDEX
  VSB - VISIBILITY
$$





USA.gov is the U.S. government's official web portal to all federal, state and local government web resources and services.